HST (20580 NORAD) Tracking and Keplerian Element Data

This shows tracking and keplerian element data for the satellite.

Feedback or suggestion? Click here.




ElementValue
Catalog20580
NameHST
Epoch Orbit47552
Epoch Day298.16915089
Epoch Year2020
RAAN188.291
Inclination28.4689
Eccentricity0.0002766
Argument of Perigee41.7991
Mean Anonmoly91.9308
Mean Motion15.09456341
Decay Rate6.53E-06
L11 20580U 90037B 20298.16915089 .00000653 00000-0 28704-4 0 9993
L22 20580 28.4689 188.2910 0002766 41.7991 91.9308 15.09456341475526

Live tracking and technical data element details for HST (NORAD 20580). HST can be tracked NOW for your location showing map with azimuth and elevation plus other details from your city location.

Track the satellite on the map from your city or location and see movement details for azimuth, elevation, latitude, longitude, range, height, and movement on the map or in text.







IsCatalogInMostPopularTable: catalog: 20580, numindb: 690
Update: records affected: 1



GetName: 20580 HST

Hit Count: updated at: Sat, 24 Oct 2020 18:27:16 GMT